When you browse on this site, cookies collect data to enhance your experience and personalize the content and advertising you see.
Visit our Privacy Policy to learn more. By continuing to use the site, you agree to this use of cookies and data.
  • In Hungary
  • List of Countries
  • For 7 days
  • Water Temperature
  • Satellite Maps
  • Weather Map
  • News
  • Weather Widgets
  • user-avatar
    Login

    Hourly Weather Jeziorzany

    Today, 23 May, Thursday

    Time Temperature Precipitation Wind Pressure Humidity
    00:00 +13°C° 0.8 mm 5 mps 738 mmHg 95%
    01:00 +13°C° 0 mm 5 mps 738 mmHg 95%
    02:00 +13°C° 0.7 mm 4 mps 738 mmHg 95%
    03:00 +13°C° 0.7 mm 4 mps 738 mmHg 95%
    04:00 +13°C° 0.7 mm 4 mps 738 mmHg 96%
    05:00 +13°C° 2.1 mm 4 mps 738 mmHg 96%
    06:00 +13°C° 2.1 mm 4 mps 739 mmHg 96%
    07:00 +13°C° 2.1 mm 4 mps 739 mmHg 96%
    08:00 +13°C° 3.7 mm 4 mps 739 mmHg 96%
    09:00 +13°C° 3.7 mm 4 mps 739 mmHg 96%
    10:00 +13°C° 3.7 mm 4 mps 740 mmHg 95%
    11:00 +12°C° 2.3 mm 5 mps 740 mmHg 95%
    12:00 +12°C° 2.3 mm 5 mps 740 mmHg 94%
    13:00 +12°C° 2.3 mm 5 mps 740 mmHg 94%
    14:00 +12°C° 0.5 mm 5 mps 740 mmHg 94%
    15:00 +12°C° 0.5 mm 5 mps 741 mmHg 94%
    16:00 +12°C° 0.5 mm 5 mps 741 mmHg 94%
    17:00 +12°C° 0.8 mm 5 mps 741 mmHg 94%
    18:00 +12°C° 0.8 mm 4 mps 741 mmHg 95%
    19:00 +11°C° 0.8 mm 4 mps 741 mmHg 95%
    20:00 +11°C° 1.7 mm 4 mps 741 mmHg 95%
    21:00 +11°C° 1.7 mm 4 mps 741 mmHg 95%
    22:00 +11°C° 1.7 mm 4 mps 741 mmHg 95%
    23:00 +11°C° 2.4 mm 4 mps 741 mmHg 96%

    Tomorrow, 24 May, Friday

    Time Temperature Precipitation Wind Pressure Humidity
    00:00 +11°C° 2.4 mm 3 mps 741 mmHg 96%
    01:00 +12°C° 2.4 mm 3 mps 741 mmHg 96%
    02:00 +11°C° 1.5 mm 3 mps 741 mmHg 96%
    03:00 +11°C° 1.5 mm 3 mps 741 mmHg 96%
    04:00 +11°C° 1.5 mm 3 mps 741 mmHg 96%
    05:00 +11°C° 1 mm 3 mps 741 mmHg 96%
    06:00 +12°C° 1 mm 2 mps 742 mmHg 96%
    07:00 +12°C° 1 mm 2 mps 742 mmHg 96%
    08:00 +12°C° 0.2 mm 2 mps 742 mmHg 95%
    09:00 +12°C° 0.2 mm 2 mps 741 mmHg 94%
    10:00 +12°C° 0.2 mm 2 mps 741 mmHg 93%
    11:00 +14°C° 0 mm 2 mps 741 mmHg 87%
    12:00 +16°C° 0 mm 2 mps 741 mmHg 80%
    13:00 +17°C° 0 mm 2 mps 741 mmHg 73%
    14:00 +18°C° 0 mm 2 mps 741 mmHg 74%
    15:00 +19°C° 0 mm 1 mps 740 mmHg 75%
    16:00 +19°C° 0 mm 1 mps 740 mmHg 76%
    17:00 +18°C° 0 mm 1 mps 740 mmHg 78%
    18:00 +18°C° 0 mm 1 mps 740 mmHg 80%
    19:00 +16°C° 0 mm 1 mps 740 mmHg 83%
    20:00 +15°C° 0 mm 1 mps 740 mmHg 85%
    21:00 +14°C° 0 mm 1 mps 740 mmHg 86%
    22:00 +13°C° 0 mm 1 mps 740 mmHg 88%
    23:00 +12°C° 0 mm 1 mps 740 mmHg 89%

    Day after tomorrow, 25 May, Saturday

    Time Temperature Precipitation Wind Pressure Humidity
    00:00 +12°C° 0 mm 1 mps 740 mmHg 90%
    01:00 +11°C° 0 mm 1 mps 741 mmHg 90%
    02:00 +11°C° 0 mm 1 mps 740 mmHg 91%
    03:00 +11°C° 0 mm 1 mps 740 mmHg 91%
    04:00 +10°C° 0 mm 1 mps 740 mmHg 92%
    05:00 +12°C° 0 mm 1 mps 740 mmHg 87%
    06:00 +14°C° 0 mm 1 mps 741 mmHg 83%
    07:00 +16°C° 0 mm 2 mps 741 mmHg 79%
    08:00 +17°C° 0 mm 2 mps 741 mmHg 71%
    09:00 +19°C° 0 mm 2 mps 741 mmHg 63%
    10:00 +20°C° 0 mm 2 mps 741 mmHg 55%
    11:00 +21°C° 0 mm 2 mps 740 mmHg 53%
    12:00 +23°C° 0 mm 2 mps 740 mmHg 51%
    13:00 +23°C° 0 mm 2 mps 740 mmHg 50%
    14:00 +23°C° 0.1 mm 2 mps 740 mmHg 53%
    15:00 +22°C° 0.1 mm 3 mps 740 mmHg 56%
    16:00 +22°C° 0.1 mm 3 mps 739 mmHg 59%
    17:00 +21°C° 0.2 mm 3 mps 740 mmHg 67%
    18:00 +19°C° 0.2 mm 2 mps 740 mmHg 75%
    19:00 +18°C° 0.2 mm 1 mps 740 mmHg 82%
    20:00 +16°C° 0 mm 1 mps 740 mmHg 85%
    21:00 +15°C° 0 mm 1 mps 740 mmHg 87%
    22:00 +14°C° 0 mm 1 mps 740 mmHg 89%
    23:00 +14°C° 0 mm 1 mps 740 mmHg 90%

    26 May, Sunday

    Time Temperature Precipitation Wind Pressure Humidity
    00:00 +13°C° 0 mm 1 mps 740 mmHg 91%
    01:00 +13°C° 0 mm 1 mps 740 mmHg 91%
    02:00 +13°C° 0 mm 1 mps 740 mmHg 92%
    03:00 +12°C° 0 mm 1 mps 740 mmHg 92%
    04:00 +12°C° 0 mm 1 mps 740 mmHg 93%
    05:00 +14°C° 0 mm 1 mps 740 mmHg 89%
    06:00 +15°C° 0 mm 2 mps 740 mmHg 85%
    07:00 +17°C° 0 mm 2 mps 740 mmHg 82%
    08:00 +18°C° 0 mm 2 mps 740 mmHg 77%
    09:00 +19°C° 0 mm 3 mps 740 mmHg 72%
    10:00 +20°C° 0 mm 3 mps 740 mmHg 67%
    11:00 +21°C° 0.2 mm 3 mps 740 mmHg 66%
    12:00 +21°C° 0.2 mm 3 mps 739 mmHg 66%
    13:00 +22°C° 0.2 mm 3 mps 739 mmHg 66%
    14:00 +22°C° 0.7 mm 3 mps 739 mmHg 69%
    15:00 +21°C° 0.7 mm 3 mps 739 mmHg 73%
    16:00 +21°C° 0.7 mm 3 mps 739 mmHg 76%
    17:00 +20°C° 0.5 mm 3 mps 739 mmHg 79%
    18:00 +19°C° 0.5 mm 2 mps 739 mmHg 81%
    19:00 +18°C° 0.5 mm 1 mps 739 mmHg 83%
    20:00 +16°C° 0 mm 1 mps 739 mmHg 84%
    21:00 +15°C° 0 mm 1 mps 740 mmHg 85%
    22:00 +13°C° 0 mm 0 mps 740 mmHg 86%
    23:00 +12°C° 0 mm 0 mps 740 mmHg 87%

    27 May, Monday

    Time Temperature Precipitation Wind Pressure Humidity
    00:00 +12°C° 0 mm 0 mps 740 mmHg 88%
    01:00 +11°C° 0 mm 0 mps 740 mmHg 88%
    02:00 +11°C° 0 mm 0 mps 740 mmHg 89%
    03:00 +11°C° 0 mm 0 mps 740 mmHg 89%
    04:00 +12°C° 0 mm 1 mps 739 mmHg 90%
    05:00 +13°C° 0 mm 1 mps 739 mmHg 87%
    06:00 +15°C° 0 mm 1 mps 739 mmHg 85%
    07:00 +18°C° 0 mm 1 mps 739 mmHg 82%
    08:00 +20°C° 0 mm 1 mps 739 mmHg 77%
    09:00 +21°C° 0 mm 1 mps 739 mmHg 72%
    10:00 +23°C° 0 mm 2 mps 739 mmHg 67%
    11:00 +23°C° 0.1 mm 1 mps 739 mmHg 68%
    12:00 +23°C° 0.1 mm 1 mps 738 mmHg 69%
    13:00 +23°C° 0.1 mm 1 mps 738 mmHg 70%
    14:00 +22°C° 0.2 mm 1 mps 737 mmHg 75%
    15:00 +22°C° 0.2 mm 1 mps 737 mmHg 80%
    16:00 +21°C° 0.2 mm 1 mps 736 mmHg 86%
    17:00 +20°C° 0.1 mm 1 mps 736 mmHg 87%
    18:00 +20°C° 0.1 mm 1 mps 736 mmHg 89%
    19:00 +18°C° 0.1 mm 2 mps 735 mmHg 91%
    20:00 +18°C° 0.8 mm 1 mps 735 mmHg 92%
    21:00 +18°C° 0.8 mm 1 mps 735 mmHg 94%
    22:00 +18°C° 0.8 mm 1 mps 735 mmHg 96%
    23:00 +16°C° 1 mm 1 mps 734 mmHg 96%

    28 May, Tuesday

    Time Temperature Precipitation Wind Pressure Humidity
    00:00 +16°C° 1 mm 1 mps 734 mmHg 96%
    01:00 +16°C° 1 mm 1 mps 733 mmHg 96%
    02:00 +16°C° 0.2 mm 1 mps 733 mmHg 95%
    03:00 +16°C° 0.2 mm 1 mps 733 mmHg 95%
    04:00 +15°C° 0.2 mm 1 mps 733 mmHg 95%
    05:00 +18°C° 0.1 mm 1 mps 733 mmHg 91%
    06:00 +18°C° 0.1 mm 2 mps 733 mmHg 87%
    07:00 +19°C° 0.1 mm 2 mps 733 mmHg 83%
    08:00 +20°C° 1.3 mm 2 mps 733 mmHg 81%
    09:00 +20°C° 1.3 mm 3 mps 733 mmHg 79%
    10:00 +21°C° 1.3 mm 3 mps 733 mmHg 76%
    11:00 +21°C° 1.7 mm 3 mps 733 mmHg 76%
    12:00 +21°C° 1.7 mm 4 mps 733 mmHg 77%
    13:00 +21°C° 1.7 mm 4 mps 733 mmHg 77%
    14:00 +21°C° 0.4 mm 4 mps 733 mmHg 76%
    15:00 +21°C° 0.4 mm 3 mps 733 mmHg 75%
    16:00 +22°C° 0.4 mm 3 mps 733 mmHg 74%
    17:00 +20°C° 0.1 mm 2 mps 733 mmHg 77%
    18:00 +19°C° 0.1 mm 2 mps 733 mmHg 80%
    19:00 +19°C° 0.1 mm 1 mps 733 mmHg 84%
    20:00 +18°C° 0 mm 1 mps 733 mmHg 86%
    21:00 +16°C° 0 mm 1 mps 733 mmHg 87%
    22:00 +15°C° 0 mm 1 mps 733 mmHg 89%
    23:00 +15°C° 0 mm 1 mps 733 mmHg 90%
    Show more